Regional Weather Roundup
Issued by NWS Charleston, SC

Current Version | Previous Version | Graphics & Text | Print | Product List | Glossary On
Versions: 1 2 3 4 5 6 7 8 9 10 11 12 13 14 15 16 17 18 19 20 21 22 23 24 25 26 27 28 29 30 31 32 33 34 35 36 37 38 39 40 41 42 43 44 45 46 47 48 49 50
651
ASUS42 KCHS 270012
RWRCHS

REGIONAL WEATHER ROUNDUP
NATIONAL WEATHER SERVICE CHARLESTON SC
800 PM EDT WED APR 26 2017

NOTE: "FAIR" INDICATES FEW OR NO CLOUDS BELOW 12,000 FEET WITH NO
SIGNIFICANT WEATHER AND/OR OBSTRUCTIONS TO VISIBILITY.

NOT ALL STATIONS ARE QUALITY CONTROLLED. USE DATA WITH CAUTION...
ESPECIALLY DEWPOINT OBSERVATIONS.

SCZ027-030-031-034>040-042>050-270100-
...SOUTHEAST SOUTH CAROLINA...

CITY           SKY/WX    TMP DP  RH WIND       PRES   REMARKS
N CHARLESTON   PTCLDY    72  56  57 S14       29.85R
6HR MIN TEMP:  72; 6HR MAX TEMP:  84;

WATERFRONT PRK   N/A     74  62  66 S10       29.83S
JOHNS ISLAND   FAIR      72  59  64 S12G18    29.86R
PINOPOLIS        N/A     79  59  50 VRB3      29.76S
MONCKS CORNER  FAIR      75  52  43 S9        29.83S
SUMMERVILLE    FAIR      73  55  53 S3        29.85R
BEAUFORT MCAS  CLEAR     74  65  73 SE8       29.84R
6HR MIN TEMP:  74; 6HR MAX TEMP:  84;

BEAUFORT ARPT  FAIR      70  61  73 S6        29.84S
HILTON HEAD IS PTCLDY    72  64  78 S9G15     29.85S
WALTERBORO     CLEAR     72  55  56 SE9       29.84R
ALLENDALE      FAIR      77  61  57 SE7       29.80R

...SOUTHERN MIDLANDS AND PEE DEE...

CITY           SKY/WX    TMP DP  RH WIND       PRES   REMARKS
GEORGETOWN     FAIR      72  55  56 S7        29.85S
KINGSTREE      MOCLDY    77  59  53 S3        29.82R
ORANGEBURG     CLEAR     77  62  59 S7        29.81R
6HR MIN TEMP:  77; 6HR MAX TEMP:  84;

BARNWELL       FAIR      81  64  57 CALM      29.80S
AIKEN          FAIR      73  59  60 S3        29.83S
MANNING        FAIR      75  63  64 S17G28    29.81S
COLUMBIA       PTCLDY    80  59  48 S5        29.78S
6HR MIN TEMP:  80; 6HR MAX TEMP:  87;

SUMTER         CLEAR     78  60  53 S5        29.78S
6HR MIN TEMP:  78; 6HR MAX TEMP:  85; 6HR PCP: TRACE;

FLORENCE       CLEAR     77  61  57 S5        29.81R
6HR MIN TEMP:  77; 6HR MAX TEMP:  84;

MYRTLE BEACH   CLEAR     75  64  69 S12       29.84
N MYRTLE BEACH CLEAR     72  64  76 S15       29.83S
6HR MIN TEMP:  72; 6HR MAX TEMP:  76;


$$

GAZ063-065-086>088-099>101-113>116-118-119-134>141-150-270100-
...SOUTHEAST GEORGIA...

CITY           SKY/WX    TMP DP  RH WIND       PRES   REMARKS
SAVANNAH ARPT  PTCLDY    73  58  59 SE10      29.84R
6HR MIN TEMP:  73; 6HR MAX TEMP:  86;

HUNTER AAF     CLEAR     72  65  78 SE6       29.82R
6HR MIN TEMP:  72; 6HR MAX TEMP:  83;

FORT STEWART   CLEAR     74  62  65 SE7       29.81R
6HR MIN TEMP:  74; 6HR MAX TEMP:  83;

STATESBORO     CLEAR     76  62  60 CALM      29.81R
SYLVANIA       CLEAR    N/A N/A N/A CALM      29.81S
CLAXTON        FAIR      74  68  79 CALM      29.81S

...CSRA...CENTRAL AND FAR SOUTHEAST GEORGIA...

CITY           SKY/WX    TMP DP  RH WIND       PRES   REMARKS
THOMSON        CLEAR     76  60  56 SW5       29.83F HAZE
AUGUSTA-BUSH   CLEAR     78  61  55 S3        29.78S
6HR MIN TEMP:  78; 6HR MAX TEMP:  86;

AUGUSTA-DANIEL CLEAR     80  56  43 S6        29.80S
SWAINSBORO     FAIR      77  59  53 CALM      29.81S
VIDALIA        MOCLDY    79  59  50 CALM      29.80F
EASTMAN        FAIR      78  44  30 S3        29.82S
HAZLEHURST     FAIR      77  61  58 CALM      29.80S
ALMA           MOCLDY    76  59  55 CALM      29.81R
6HR MIN TEMP:  76; 6HR MAX TEMP:  85; 6HR PCP: TRACE;

WAYCROSS       MOCLDY    82  58  44 SW10      29.82R
JESUP          FAIR      77  59  53 SE8       29.82R
BAXLEY         MOCLDY    79  63  57 CALM      29.81R
BRUNSWICK      PTCLDY    73  64  73 SE10      29.85R
SAINT SIMONS   PTCLDY    73  61  65 SE10      29.85R
6HR MIN TEMP:  73; 6HR MAX TEMP:  79; 6HR PCP: TRACE;


$$

SCZ027-028-034-036>038-045-046-048>050-GAZ119-141-270100-
...LAKE AND SUPPLEMENTAL COASTAL OBSERVATIONS...

STATION/POSITION TIME  TEMP    WIND        PRES    WAVE   SWELL
                       AIR SEA DIR/SP/G            HT/PER HT/PER/DIR
                 (UTC) (F)     (DEG/KT/KT) (MB)    (FT/S) (FT/S/D)
WINYAH BAY       NOT AVBL
LAKE MURRAY      2320   79     210/  3/  4 1008.1
ACE BASIN NERRS  NOT AVBL
FORT PULASKI     2348   72 74  180/  5/  7 1010.9R
SAPELO ISLAND    2300   76     160/ 10     1010.0

$$

ANZ835-935-AMZ111-154-330-350-352-354-370-450-454-472-270100-
...C-MAN AND BUOY OBSERVATIONS...

STATION/POSITION TIME  TEMP    WIND        PRES    WAVE   SWELL
                       AIR SEA DIR/SP/G            HT/PER HT/PER/DIR
                 (UTC) (F)     (DEG/KT/KT) (MB)    (FT/S) (FT/S/D)
BUOY 41004       2350   73 73  200/  8/ 10 1011.1R   4/ 9   3/120/ 9
BUOY 41008       2250   73 73  170/ 14/ 16 1010.0    2/ 9   2/110/ 9
FOLLY BEACH CMAN 0000   73     170/ 14/ 16 1011.7R
CAPERS NEARSHORE 2308   76 73  200/ 12/ 16 1010.6R
FRIPP NEARSHORE  2308   73 74  170/ 12/ 16 1010.3R


STATION/POSITION TIME  TEMP    WIND        PRES    WAVE   SWELL
                       AIR SEA DIR/SP/G            HT/PER HT/PER/DIR
                 (UTC) (F)     (DEG/KT/KT) (MB)    (FT/S) (FT/S/D)
5E ST. MARYS GA  2330      73                N/A     3/ 9   2/ 90/13
FRYING PAN BUOY  2350   74 74  210/ 14/ 16 1011.0R   4/ 9   3/110/ 9
BUOY 41025       2350   73 77  220/ 10/ 14 1010.8R   5/ 9   5/150/ 9
CAPE LOOKOUT NC  0000   72     200/ 11/ 13 1010.6R
BUOY 41002       2350   74 75  230/ 12/ 14 1013.2R   6/ 8   5/110/ 8
BUOY 41010       2350   75 78  200/  8/ 10 1012.6R   5/ 9   5/120/ 9
ST AUGUSTINE FL  0000   73 76  140/ 15/ 16 1012.0R


$$




USA.gov is the U.S. government's official web portal to all federal, state and local government web resources and services.